Iliamna, AK

5:54 PM AKDT on April 28, 2017 (GMT -0800)
Iliamna

Weather History for PAIL - January, 2013

Change the Weather History Date:

Monday, January 21, 2013

  Actual Average Record
Temperature  
Mean Temperature 40 °F -  
Max Temperature 43 °F 25 °F 45 °F (2009)
Min Temperature 36 °F 13 °F -39 °F (1947)
Degree Days  
Heating Degree Days 26    
Moisture  
Dew Point 30 °F    
Average Humidity 70    
Maximum Humidity 86    
Minimum Humidity 57    
Precipitation  
Precipitation 0.00 in - - ()
Sea Level Pressure  
Sea Level Pressure 29.63 in    
Wind  
Wind Speed 7 mph (NE)    
Max Wind Speed 13 mph    
Max Gust Speed 18 mph    
Visibility 10 miles    
Events      
Averages and records for this station are not official NWS values.
T = Trace of Precipitation, MM = Missing Value Source: NWS Daily Summary

Daily Weather History Graph

Daily Weather History Graph

Search for Another Location

Airport or City:

Trip Planner

Search our weather history database for the weather conditions in past years. The results will help you decide how hot, cold, wet, or windy it might be!

Date:

Astronomy

Jan. 21, 2013 Rise Set
Actual Time 9:54 AM AKST 5:08 PM AKST
Civil Twilight 9:04 AM AKST 5:58 PM AKST
Nautical Twilight 8:11 AM AKST 6:51 PM AKST
Astronomical Twilight 7:22 AM AKST 7:40 PM AKST
Moon 12:48 PM AKST (1/21) 5:38 AM AKST (1/21)
Length of Visible Light 8h 54m
Length of Day
7h 14m
Waxing Gibbous, 76% of the Moon is Illuminated
Jan 21
Waxing Gibbous
Jan 26
Full
Feb 3
Last Quarter
Feb 9
New
Feb 17
First Quarter

Hourly Weather History & Observations

Time (AKST) Temp. Windchill Dew Point Humidity Pressure Visibility Wind Dir Wind Speed Gust Speed Precip Events Conditions
12:53 AM 36.0 °F 30.3 °F 32.0 °F 86% 29.81 in 10.0 mi East 6.9 mph - N/A   Overcast
1:53 AM 36.0 °F 33.3 °F 32.0 °F 86% 29.81 in 10.0 mi ENE 3.5 mph - N/A   Overcast
3:53 AM 37.9 °F 31.5 °F 30.9 °F 76% 29.78 in 10.0 mi East 9.2 mph - N/A   Mostly Cloudy
4:53 AM 37.0 °F 31.0 °F 30.9 °F 79% 29.76 in 10.0 mi NE 8.1 mph - N/A   Mostly Cloudy
5:53 AM 37.0 °F 32.4 °F 30.0 °F 76% 29.74 in 10.0 mi ENE 5.8 mph - N/A   Overcast
6:53 AM 39.0 °F 31.4 °F 28.9 °F 67% 29.73 in 10.0 mi East 12.7 mph - N/A   Partly Cloudy
7:53 AM 37.0 °F 32.4 °F 28.9 °F 73% 29.70 in 10.0 mi NE 5.8 mph - N/A   Clear
8:53 AM 39.0 °F 31.4 °F 30.0 °F 70% 29.69 in 10.0 mi ENE 12.7 mph - N/A   Clear
9:53 AM 37.9 °F 31.5 °F 28.9 °F 70% 29.68 in 10.0 mi NE 9.2 mph - N/A   Clear
10:53 AM 39.9 °F 32.9 °F 28.0 °F 63% 29.67 in 10.0 mi ENE 11.5 mph - N/A   Scattered Clouds
11:53 AM 39.9 °F 35.8 °F 28.0 °F 63% 29.66 in 10.0 mi NE 5.8 mph - N/A   Mostly Cloudy
12:53 PM 41.0 °F 35.2 °F 27.0 °F 57% 29.64 in 10.0 mi NNE 9.2 mph - N/A   Mostly Cloudy
1:53 PM 37.9 °F 34.4 °F 28.0 °F 68% 29.62 in 10.0 mi NNE 4.6 mph - N/A   Mostly Cloudy
2:53 PM 37.9 °F 34.4 °F 28.0 °F 68% 29.59 in 10.0 mi NNE 4.6 mph - N/A   Mostly Cloudy
3:53 PM 39.0 °F 32.8 °F 28.0 °F 65% 29.55 in 10.0 mi NE 9.2 mph - N/A   Mostly Cloudy
4:53 PM 39.0 °F 34.0 °F 28.0 °F 65% 29.53 in 10.0 mi NNE 6.9 mph - N/A   Overcast
5:53 PM 39.9 °F 35.1 °F 28.0 °F 63% 29.50 in 10.0 mi North 6.9 mph - N/A   Overcast
6:53 PM 39.9 °F - 28.0 °F 63% 29.49 in 10.0 mi Calm Calm - N/A   Overcast
7:53 PM 37.9 °F 30.9 °F 30.0 °F 73% 29.49 in 10.0 mi West 10.4 mph - N/A   Overcast
8:53 PM 36.0 °F - 30.0 °F 79% 29.49 in 10.0 mi Calm Calm - N/A   Overcast
9:53 PM 41.0 °F 35.8 °F 32.0 °F 70% 29.49 in 10.0 mi ENE 8.1 mph - N/A   Overcast
10:53 PM 43.0 °F 36.4 °F 34.0 °F 71% 29.51 in 10.0 mi East 12.7 mph 18.4 mph N/A   Overcast
11:53 PM 39.9 °F - 34.0 °F 79% 29.50 in 10.0 mi Calm Calm - N/A   Mostly Cloudy